Nashville, TN

3:31 AM CDT on May 23, 2017 (GMT -0500)
Nashville International

Weather History for KBNA - August, 2013

Change the Weather History Date:

Saturday, August 24, 2013

  Actual Average Record
Temperature  
Mean Temperature 80 °F 78 °F  
Max Temperature 90 °F 89 °F 102 °F (2007)
Min Temperature 69 °F 68 °F 52 °F (1891)
Degree Days  
Heating Degree Days 0    
Month to date heating degree days 0  
Since 1 June heating degree days 0  
Since 1 July heating degree days 0  
Cooling Degree Days 15    
Month to date cooling degree days 293  
Year to date cooling degree days 1276  
Since 1 June cooling degree days 1069  
Growing Degree Days 30 (Base 50)    
Moisture  
Dew Point 66 °F    
Average Humidity 69    
Maximum Humidity 97    
Minimum Humidity 41    
Precipitation  
Precipitation 0.00 in 0.10 in 2.65 in (1876)
Month to date precipitation 1.94 2.50  
Year to date precipitation 37.46 31.58  
Snow  
Snow 0.00 in - 0.00 in (2002)
Month to date snowfall 0.0  
Since 1 June snowfall 0.0  
Since 1 July snowfall 0.0  
Snow Depth 0.00 in    
Sea Level Pressure  
Sea Level Pressure 30.15 in    
Wind  
Wind Speed 5 mph (ENE)    
Max Wind Speed 15 mph    
Max Gust Speed 18 mph    
Visibility 9 miles    
Events      
T = Trace of Precipitation, MM = Missing Value Source: NWS Daily Summary

Daily Weather History Graph

Daily Weather History Graph

Search for Another Location

Airport or City:

Trip Planner

Search our weather history database for the weather conditions in past years. The results will help you decide how hot, cold, wet, or windy it might be!

Date:

Astronomy

Aug. 24, 2013 Rise Set
Actual Time 6:12 AM CDT 7:25 PM CDT
Civil Twilight 5:45 AM CDT 7:51 PM CDT
Nautical Twilight 5:13 AM CDT 8:23 PM CDT
Astronomical Twilight 4:40 AM CDT 8:56 PM CDT
Moon 9:28 PM CDT (8/24) 10:02 AM CDT (8/24)
Length of Visible Light 14h 06m
Length of Day
13h 12m
Waning Gibbous, 84% of the Moon is Illuminated
Aug 24
Waning Gibbous
Aug 28
Last Quarter
Sep 5
New
Sep 12
First Quarter
Sep 19
Full

Hourly Weather History & Observations

Time (CDT) Temp. Heat Index Dew Point Humidity Pressure Visibility Wind Dir Wind Speed Gust Speed Precip Events Conditions
12:53 AM 72.0 °F - 68.0 °F 87% 30.09 in 9.0 mi ENE 3.5 mph - N/A   Clear
1:53 AM 72.0 °F - 68.0 °F 87% 30.09 in 8.0 mi Calm Calm - N/A   Clear
2:53 AM 71.1 °F - 68.0 °F 90% 30.09 in 7.0 mi North 3.5 mph - N/A   Clear
3:53 AM 70.0 °F - 68.0 °F 93% 30.11 in 6.0 mi North 3.5 mph - N/A   Clear
4:53 AM 70.0 °F - 66.9 °F 90% 30.11 in 6.0 mi North 4.6 mph - N/A   Clear
5:53 AM 70.0 °F - 66.9 °F 90% 30.12 in 7.0 mi Calm Calm - N/A   Clear
6:53 AM 70.0 °F - 66.9 °F 90% 30.14 in 5.0 mi Calm Calm - N/A   Partly Cloudy
7:53 AM 73.0 °F - 70.0 °F 90% 30.16 in 6.0 mi Calm Calm - N/A   Clear
8:53 AM 75.9 °F - 70.0 °F 82% 30.18 in 8.0 mi Calm Calm - N/A   Clear
9:53 AM 80.1 °F 83.2 °F 70.0 °F 71% 30.18 in 10.0 mi East 5.8 mph - N/A   Clear
10:53 AM 82.0 °F 85.9 °F 70.0 °F 67% 30.19 in 10.0 mi ESE 4.6 mph - N/A   Partly Cloudy
11:53 AM 84.9 °F 89.4 °F 70.0 °F 61% 30.17 in 10.0 mi Variable 4.6 mph - N/A   Mostly Cloudy
12:53 PM 87.1 °F 89.2 °F 66.0 °F 49% 30.17 in 10.0 mi ENE 10.4 mph - N/A   Scattered Clouds
1:53 PM 88.0 °F 89.6 °F 64.9 °F 46% 30.16 in 10.0 mi ENE 9.2 mph - N/A   Scattered Clouds
2:53 PM 89.1 °F 91.0 °F 64.9 °F 45% 30.14 in 10.0 mi NE 6.9 mph - N/A   Scattered Clouds
3:53 PM 89.1 °F 90.0 °F 63.0 °F 42% 30.14 in 10.0 mi ENE 9.2 mph - N/A   Scattered Clouds
4:53 PM 89.1 °F 90.3 °F 64.0 °F 43% 30.14 in 10.0 mi East 9.2 mph - N/A   Scattered Clouds
5:53 PM 87.1 °F 88.9 °F 64.9 °F 48% 30.13 in 10.0 mi NE 9.2 mph - N/A   Scattered Clouds
6:53 PM 84.9 °F 85.0 °F 61.0 °F 44% 30.14 in 10.0 mi ENE 9.2 mph - N/A   Scattered Clouds
7:53 PM 81.0 °F 81.9 °F 62.1 °F 52% 30.15 in 10.0 mi East 5.8 mph - N/A   Partly Cloudy
8:53 PM 79.0 °F - 63.0 °F 58% 30.17 in 10.0 mi East 5.8 mph - N/A   Clear
9:53 PM 78.1 °F - 63.0 °F 60% 30.18 in 10.0 mi East 6.9 mph - N/A   Clear
10:53 PM 75.9 °F - 64.9 °F 69% 30.19 in 10.0 mi ESE 3.5 mph - N/A   Clear
11:53 PM 75.9 °F - 64.0 °F 67% 30.20 in 10.0 mi NE 3.5 mph - N/A   Clear